Location: Gammelsbach
(49.5261°N, 8.9630°E)
Time: 20:50:40
(UTC+00:00)

Cosmos 1850 Rocket - Pass Details

Date: 17 June 2025
Orbit: 750 x 781 km, 74.0° (Epoch: 16 July)

Event Time Altitude Azimuth Distance (km) Brightness Sun altitude
Exits shadow 23:21:09 29° 163° (SSE) 1,365 4.7 -17.1°
Maximum altitude 23:23:25 48° 106° (ESE) 980 4.4 -17.1°
Drops below altitude 10° 23:28:22 10° 33° (NNE) 2,283 7.3 -17.1°
Sets 23:30:48 0° 28° (NNE) 3,212 8.4 -17.1°
